KD0KHX-10 Weather Reports


Display with metric or nautical units.
time (UTC)temp
F
wind
direction
speed
MPH
gust
MPH
rain 1hr
in
rain 24hr
in
rain mn
in
humidity
%
barometer
mb
20260906202217 88 165 16.0 26.0 0.00 0.08 0.08 49 1009.4
20260906201503 88 154 16.0 32.0 0.00 0.08 0.08 49 1009.6
20260906201217 88 156 15.0 32.0 0.00 0.08 0.08 50 1009.5
20260906200503 88 163 15.0 26.0 0.00 0.08 0.08 50 1009.5
20260906200217 88 164 15.0 27.0 0.00 0.08 0.08 50 1009.6
20260906195716 88 164 15.0 28.0 0.00 0.08 0.08 50 1009.8
20260906195003 88 162 15.0 28.0 0.00 0.08 0.08 49 1009.5
20260906194503 88 159 15.0 27.0 0.00 0.08 0.08 49 1009.8
20260906194003 88 156 16.0 30.0 0.00 0.08 0.08 49 1009.8
20260906193503 88 158 16.0 30.0 0.00 0.08 0.08 48 1010.1
20260906193003 88 163 15.0 30.0 0.00 0.08 0.08 47 1009.8
20260906192718 88 164 15.0 30.0 0.00 0.08 0.08 47 1009.9
20260906192003 88 158 15.0 24.0 0.00 0.08 0.08 47 1010.0
20260906191503 88 163 15.0 24.0 0.00 0.08 0.08 47 1010.1
20260906191003 88 170 15.0 28.0 0.00 0.08 0.08 47 1009.9
20260906190933 88 169 14.0 28.0 0.00 0.08 0.08 47 1009.9
20260906190003 88 164 12.0 23.0 0.00 0.08 0.08 50 1010.3
20260906185718 87 165 12.0 23.0 0.00 0.08 0.08 52 1010.2
20260906185003 87 165 13.0 24.0 0.00 0.08 0.08 52 1010.3
20260906184503 87 159 12.0 23.0 0.00 0.08 0.08 52 1010.4
20260906184217 86 157 13.0 29.0 0.00 0.08 0.08 52 1010.3
20260906183718 86 155 14.0 29.0 0.00 0.08 0.08 55 1010.4
20260906183217 86 159 15.0 27.0 0.00 0.08 0.08 55 1010.4
20260906182718 85 162 14.0 24.0 0.00 0.08 0.08 55 1010.4
20260906182003 85 166 13.0 24.0 0.00 0.08 0.08 55 1010.5
20260906181933 85 166 13.0 24.0 0.00 0.08 0.08 55 1010.5
20260906181217 84 163 13.0 22.0 0.00 0.08 0.08 58 1010.7
20260906180503 84 162 12.0 22.0 0.00 0.08 0.08 60 1011.0
20260906180432 83 160 12.0 22.0 0.00 0.08 0.08 59 1010.9
20260906175718 83 163 13.0 22.0 0.00 0.08 0.08 60 1011.0
20260906175432 82 157 14.0 22.0 0.00 0.08 0.08 61 1011.2
20260906174718 82 151 13.0 24.0 0.00 0.08 0.08 61 1011.1
20260906174003 82 149 11.0 20.0 0.00 0.08 0.08 61 1011.4
20260906173503 82 155 12.0 21.0 0.00 0.08 0.08 62 1011.4
20260906173003 81 160 13.0 21.0 0.00 0.08 0.08 62 1011.4
20260906172503 81 155 10.0 20.0 0.00 0.08 0.08 63 1011.4
20260906172003 81 152 10.0 20.0 0.00 0.08 0.08 65 1011.5
20260906171503 80 149 11.0 22.0 0.00 0.08 0.08 66 1011.7
20260906171003 80 147 10.0 22.0 0.00 0.08 0.08 67 1011.8
20260906170503 79 149 11.0 22.0 0.00 0.08 0.08 70 1011.9
20260906170431 79 148 12.0 22.0 0.00 0.08 0.08 70 1011.9
20260906165717 78 147 12.0 23.0 0.00 0.08 0.08 71 1011.9
20260906165003 78 140 10.0 21.0 0.00 0.08 0.08 70 1012.2
20260906164932 78 141 10.0 21.0 0.00 0.08 0.08 70 1012.2
20260906164003 78 148 10.0 21.0 0.00 0.08 0.08 72 1012.3
20260906163932 78 148 10.0 21.0 0.00 0.08 0.08 72 1012.4
20260906163003 78 128 6.0 18.0 0.00 0.08 0.08 72 1012.4
20260906162932 78 126 6.0 16.0 0.00 0.08 0.08 72 1012.4
20260906162003 78 125 5.0 18.0 0.00 0.08 0.08 75 1012.3
20260906161503 78 119 5.0 12.0 0.00 0.08 0.08 75 1012.4
20260906161003 77 124 6.0 12.0 0.00 0.08 0.08 77 1012.5
20260906160503 77 129 5.0 14.0 0.00 0.08 0.08 77 1012.6
20260906160433 77 128 5.0 14.0 0.00 0.08 0.08 77 1012.6
20260906155503 76 123 6.0 13.0 0.00 0.08 0.08 78 1012.4
20260906155003 76 125 5.0 13.0 0.00 0.08 0.08 79 1012.4
20260906154503 76 125 4.0 12.0 0.00 0.08 0.08 80 1012.5
20260906154003 75 103 4.0 14.0 0.00 0.08 0.08 82 1012.4
20260906153717 75 94 4.0 14.0 0.00 0.08 0.08 83 1012.4
20260906153003 74 94 4.0 17.0 0.00 0.08 0.08 84 1012.5
20260906152503 74 101 3.0 12.0 0.00 0.08 0.08 84 1012.5
20260906152003 74 113 2.0 10.0 0.00 0.08 0.08 85 1012.6
20260906151503 74 125 3.0 11.0 0.00 0.08 0.08 86 1012.6
20260906151003 73 129 3.0 11.0 0.00 0.08 0.08 87 1012.5
20260906150934 73 129 3.0 10.0 0.00 0.08 0.08 87 1012.4
20260906150008 72 123 4.0 10.0 0.00 0.08 0.08 90 1012.3
20260906145716 72 121 4.0 11.0 0.00 0.08 0.08 91 1012.4
20260906145003 71 123 4.0 11.0 0.00 0.08 0.08 92 1012.3
20260906144503 71 112 4.0 11.0 0.00 0.08 0.08 93 1012.1
20260906144217 70 105 4.0 12.0 0.00 0.08 0.08 93 1012.1
20260906143503 70 111 4.0 12.0 0.00 0.08 0.08 93 1012.0
20260906143003 70 116 3.0 14.0 0.00 0.08 0.08 94 1012.0
20260906142716 70 118 4.0 14.0 0.00 0.08 0.08 94 1012.0
20260906142432 70 122 4.0 14.0 0.00 0.08 0.08 94 1012.2
20260906141718 69 136 5.0 17.0 0.00 0.08 0.08 94 1012.0
20260906141003 68 144 6.0 17.0 0.00 0.08 0.08 94 1012.1
20260906140503 68 136 7.0 17.0 0.00 0.08 0.08 94 1012.2
20260906140003 68 127 6.0 17.0 0.00 0.08 0.08 94 1012.1
20260906135716 68 124 4.0 12.0 0.00 0.08 0.08 94 1012.2
20260906135003 68 139 4.0 10.0 0.00 0.08 0.08 94 1012.4
20260906134503 68 150 4.0 15.0 0.00 0.08 0.08 94 1012.2
20260906134003 68 136 5.0 15.0 0.00 0.08 0.08 94 1012.0
20260906133503 68 108 4.0 12.0 0.03 0.08 0.08 94 1012.0
20260906133003 68 106 4.0 12.0 0.05 0.08 0.08 94 1011.7
20260906132503 68 133 3.0 8.0 0.06 0.08 0.08 94 1012.1
20260906132217 68 145 2.0 8.0 0.06 0.08 0.08 94 1012.2
20260906131718 68 150 1.0 8.0 0.06 0.08 0.08 94 1011.9
20260906131003 68 154 2.0 8.0 0.08 0.08 0.08 94 1011.8
20260906130503 68 150 3.0 8.0 0.08 0.08 0.08 94 1011.7
20260906130003 68 141 3.0 8.0 0.08 0.08 0.08 94 1011.5
20260906125503 68 127 2.0 11.0 0.08 0.08 0.08 94 1011.3
20260906125217 68 116 2.0 11.0 0.08 0.08 0.08 94 1011.0
20260906124503 68 85 4.0 11.0 0.08 0.08 0.08 94 1011.1
20260906124217 68 80 5.0 11.0 0.08 0.08 0.08 94 1011.2
20260906123503 68 72 6.0 12.0 0.05 0.05 0.05 94 1011.0
20260906123003 68 80 5.0 10.0 0.03 0.03 0.03 94 1011.3
20260906122503 68 87 2.0 7.0 0.02 0.02 0.02 94 1011.7
20260906122003 67 94 1.0 6.0 0.02 0.02 0.02 93 1011.8
20260906121503 67 94 2.0 6.0 0.01 0.01 0.01 93 1011.6
20260906121003 67 95 0.0 3.0 0.00 0.00 0.00 93 1011.9
20260906120503 67 95 0.0 2.0 0.00 0.00 0.00 93 1011.8
20260906120003 67 95 1.0 4.0 0.00 0.00 0.00 93 1011.8
20260906115503 67 94 1.0 4.0 0.00 0.00 0.00 93 1011.7
20260906115216 67 92 2.0 6.0 0.00 0.00 0.00 93 1011.8
20260906114503 67 92 2.0 6.0 0.00 0.00 0.00 93 1011.5
20260906114216 68 94 2.0 7.0 0.00 0.00 0.00 93 1011.6
20260906113717 68 90 3.0 8.0 0.00 0.00 0.00 93 1011.7
20260906113003 68 91 3.0 8.0 0.00 0.00 0.00 93 1011.7
20260906112503 68 92 3.0 8.0 0.00 0.00 0.00 93 1011.6
20260906112216 68 94 3.0 8.0 0.00 0.00 0.00 93 1011.7
20260906111503 68 97 3.0 7.0 0.00 0.00 0.00 93 1011.7
20260906111003 68 85 3.0 8.0 0.00 0.00 0.00 92 1011.7
20260906110503 68 71 4.0 8.0 0.00 0.00 0.00 92 1011.7
20260906110433 68 70 4.0 5.0 0.00 0.00 0.00 92 1011.7
20260906105717 68 52 4.0 9.0 0.00 0.00 0.00 92 1011.6
20260906105003 68 52 4.0 7.0 0.00 0.00 0.00 92 1011.4
20260906104503 68 52 4.0 8.0 0.00 0.00 0.00 92 1011.5
20260906104003 68 43 5.0 9.0 0.00 0.00 0.00 91 1011.3
20260906103503 68 42 5.0 12.0 0.00 0.00 0.00 91 1011.2
20260906103003 68 53 5.0 12.0 0.00 0.00 0.00 90 1011.2
20260906102503 68 46 5.0 12.0 0.00 0.00 0.00 90 1011.3
20260906102218 68 38 6.0 12.0 0.00 0.00 0.00 90 1011.2
20260906101503 68 33 7.0 12.0 0.00 0.00 0.00 89 1011.2
20260906101218 69 35 7.0 12.0 0.00 0.00 0.00 88 1011.0
20260906100717 69 30 8.0 15.0 0.00 0.00 0.00 88 1010.7
20260906100003 69 23 12.0 18.0 0.00 0.00 0.00 86 1010.8
20260906095503 70 24 10.0 18.0 0.00 0.00 0.00 85 1010.8
20260906095003 70 28 9.0 16.0 0.00 0.00 0.00 83 1010.6
20260906094503 72 11 10.0 19.0 0.00 0.00 0.00 80 1010.7
20260906094003 74 341 8.0 19.0 0.00 0.00 0.00 75 1010.8
20260906093503 75 315 5.0 14.0 0.00 0.00 0.00 72 1010.7
20260906093003 75 311 5.0 12.0 0.00 0.00 0.00 72 1010.4
20260906092503 76 299 5.0 12.0 0.00 0.00 0.00 70 1010.3
20260906092003 76 275 4.0 10.0 0.00 0.00 0.00 70 1010.2
20260906091503 76 240 3.0 7.0 0.00 0.00 0.00 67 1009.8
20260906091003 76 221 3.0 7.0 0.00 0.00 0.00 68 1009.6
20260906090503 76 208 3.0 8.0 0.00 0.00 0.00 68 1009.6
20260906090432 76 208 3.0 8.0 0.00 0.00 0.00 68 1009.6
20260906085718 77 194 5.0 10.0 0.00 0.00 0.00 66 1009.4
20260906085003 77 185 7.0 13.0 0.00 0.00 0.00 64 1009.3
20260906084503 77 182 7.0 15.0 0.00 0.00 0.00 64 1009.3
20260906084008 77 181 8.0 15.0 0.00 0.00 0.00 64 1009.4
20260906083503 77 182 8.0 15.0 0.00 0.00 0.00 63 1009.4
20260906083003 77 181 9.0 15.0 0.00 0.00 0.00 63 1009.3
20260906082718 77 181 8.0 15.0 0.00 0.00 0.00 63 1009.3
20260906082003 77 179 6.0 10.0 0.00 0.00 0.00 63 1009.4
20260906081503 78 178 6.0 11.0 0.00 0.00 0.00 63 1009.5
20260906081003 78 179 6.0 11.0 0.00 0.00 0.00 62 1009.4
20260906080503 78 178 8.0 14.0 0.00 0.00 0.00 62 1009.4
20260906080432 78 178 8.0 14.0 0.00 0.00 0.00 62 1009.4
20260906075503 78 178 9.0 15.0 0.00 0.00 0.00 62 1009.5
20260906075432 78 178 9.0 15.0 0.00 0.00 0.00 62 1009.5
20260906074503 77 172 9.0 13.0 0.00 0.00 0.00 63 1009.5
20260906074003 77 165 8.0 13.0 0.00 0.00 0.00 63 1009.7
20260906073503 77 162 8.0 13.0 0.00 0.00 0.00 63 1009.7
20260906073003 78 158 8.0 15.0 0.00 0.00 0.00 62 1009.7
20260906072718 78 158 8.0 15.0 0.00 0.00 0.00 62 1009.8
20260906072003 78 158 8.0 15.0 0.00 0.00 0.00 61 1009.7
20260906071503 78 166 8.0 15.0 0.00 0.00 0.00 62 1009.7
20260906071003 77 173 7.0 15.0 0.00 0.00 0.00 63 1009.7
20260906070933 77 173 7.0 15.0 0.00 0.00 0.00 63 1009.7
20260906070003 77 167 7.0 12.0 0.00 0.00 0.00 65 1009.7
20260906065503 77 164 7.0 12.0 0.00 0.00 0.00 65 1009.7
20260906065003 77 158 6.0 11.0 0.00 0.00 0.00 65 1009.8
20260906064503 76 157 7.0 11.0 0.00 0.00 0.00 66 1009.9
20260906064003 76 159 7.0 13.0 0.00 0.00 0.00 66 1010.0
20260906063503 76 160 6.0 13.0 0.00 0.00 0.00 67 1010.1
20260906063003 76 165 6.0 10.0 0.00 0.00 0.00 67 1010.0
20260906062717 76 166 5.0 10.0 0.00 0.00 0.00 67 1010.1
20260906062216 76 159 5.0 9.0 0.00 0.00 0.00 67 1010.1
20260906061503 76 153 5.0 9.0 0.00 0.00 0.00 67 1010.2
20260906061003 76 151 5.0 10.0 0.00 0.00 0.00 67 1010.1
20260906060717 76 150 5.0 10.0 0.00 0.00 0.00 67 1010.0
20260906060003 76 155 6.0 10.0 0.00 0.00 0.00 67 1010.1
20260906055717 76 157 6.0 10.0 0.00 0.00 0.00 67 1010.0
20260906055003 76 159 6.0 10.0 0.00 0.00 0.00 67 1010.2
20260906054503 76 157 6.0 11.0 0.00 0.00 0.00 67 1010.0
20260906054218 76 159 6.0 11.0 0.00 0.00 0.00 67 1009.9
20260906053503 76 167 6.0 10.0 0.00 0.00 0.00 66 1009.7
20260906053003 76 160 7.0 12.0 0.00 0.00 0.00 66 1009.7
20260906052503 76 153 7.0 12.0 0.00 0.00 0.00 66 1009.5
20260906052008 76 147 6.0 12.0 0.00 0.00 0.00 66 1009.6
20260906051503 76 152 6.0 11.0 0.00 0.00 0.00 66 1009.5
20260906051433 76 152 6.0 11.0 0.00 0.00 0.00 66 1009.5
20260906050503 77 151 7.0 11.0 0.00 0.00 0.00 65 1009.5
20260906050433 77 150 7.0 11.0 0.00 0.00 0.00 65 1009.5
20260906045503 77 143 5.0 9.0 0.00 0.00 0.00 64 1009.7
20260906045003 77 141 5.0 9.0 0.00 0.00 0.00 64 1009.7
20260906044503 77 145 5.0 9.0 0.00 0.00 0.00 64 1009.7
20260906044003 77 153 5.0 8.0 0.00 0.00 0.00 63 1009.6
20260906043503 77 157 4.0 8.0 0.00 0.00 0.00 63 1009.7
20260906043003 77 153 4.0 8.0 0.00 0.00 0.00 63 1009.7
20260906042503 78 152 4.0 10.0 0.00 0.00 0.00 63 1009.8
20260906042003 78 157 5.0 10.0 0.00 0.00 0.00 62 1009.6
20260906041503 78 153 5.0 8.0 0.00 0.00 0.00 62 1009.6
20260906041217 78 152 5.0 8.0 0.00 0.00 0.00 62 1009.5
20260906040503 78 158 6.0 11.0 0.00 0.00 0.00 61 1009.6
20260906040003 78 156 6.0 11.0 0.00 0.00 0.00 61 1009.4
20260906035503 78 153 6.0 11.0 0.00 0.00 0.00 60 1009.4
20260906035433 78 153 6.0 11.0 0.00 0.00 0.00 60 1009.4
20260906034503 79 160 7.0 14.0 0.00 0.00 0.00 60 1009.7
20260906034003 79 162 8.0 14.0 0.00 0.00 0.00 59 1009.3
20260906033716 79 161 7.0 12.0 0.00 0.00 0.00 59 1009.4
20260906033003 79 154 7.0 11.0 0.00 0.00 0.00 59 1009.4
20260906032716 79 150 7.0 11.0 0.00 0.00 0.00 59 1009.4
20260906032003 79 152 6.0 11.0 0.00 0.00 0.00 58 1009.5
20260906031503 80 149 6.0 12.0 0.00 0.00 0.00 58 1009.4
20260906031217 80 149 6.0 12.0 0.00 0.00 0.00 58 1009.4
20260906030718 80 152 7.0 12.0 0.00 0.00 0.00 58 1009.4
20260906030003 80 151 6.0 14.0 0.00 0.00 0.00 58 1009.4
20260906025718 80 152 6.0 14.0 0.00 0.00 0.00 58 1009.4
20260906025003 80 156 8.0 14.0 0.00 0.00 0.00 57 1009.3
20260906024503 80 155 8.0 14.0 0.00 0.00 0.00 57 1009.2
20260906024217 81 153 8.0 14.0 0.00 0.00 0.00 57 1009.2
20260906023718 81 153 7.0 14.0 0.00 0.00 0.00 57 1009.3
20260906023432 81 151 7.0 14.0 0.00 0.00 0.00 57 1009.2
20260906022503 81 155 8.0 15.0 0.00 0.00 0.00 57 1009.2
20260906022217 81 156 7.0 13.0 0.00 0.00 0.00 57 1009.2
20260906021503 82 148 6.0 11.0 0.00 0.00 0.00 56 1009.1
20260906021003 82 138 5.0 11.0 0.00 0.00 0.00 55 1008.9
20260906020718 82 136 6.0 10.0 0.00 0.00 0.00 55 1008.9
20260906020003 83 138 5.0 9.0 0.00 0.00 0.00 54 1009.0
20260906015718 83 138 5.0 9.0 0.00 0.00 0.00 54 1008.9
20260906015432 83 136 5.0 10.0 0.00 0.00 0.00 54 1008.9
20260906014503 84 144 6.0 13.0 0.00 0.00 0.00 53 1008.9
20260906014003 84 145 7.0 15.0 0.00 0.00 0.00 52 1008.9
20260906013933 84 144 7.0 15.0 0.00 0.00 0.00 52 1008.9
20260906013003 84 146 7.0 12.0 0.00 0.00 0.00 51 1008.8
20260906012503 85 142 5.0 12.0 0.00 0.00 0.00 51 1008.8
20260906012003 85 144 4.0 10.0 0.00 0.00 0.00 50 1008.6
20260906011503 86 144 5.0 14.0 0.00 0.00 0.00 49 1008.6
20260906011003 86 144 6.0 14.0 0.00 0.00 0.00 49 1008.6
20260906010717 86 144 7.0 15.0 0.00 0.00 0.00 48 1008.5
20260906010003 86 140 9.0 18.0 0.00 0.00 0.00 48 1008.2
20260906005503 87 143 9.0 14.0 0.00 0.00 0.00 47 1008.1
20260906005003 87 147 10.0 18.0 0.00 0.00 0.00 47 1008.1
20260906004503 88 148 10.0 18.0 0.00 0.00 0.00 46 1008.1
20260906004216 88 148 10.0 17.0 0.00 0.00 0.00 46 1007.9
20260906003503 89 150 10.0 18.0 0.00 0.00 0.00 45 1007.9
20260906003433 89 150 10.0 18.0 0.00 0.00 0.00 45 1008.0
20260906002503 91 154 11.0 24.0 0.00 0.00 0.00 42 1007.9
20260906002433 91 154 10.0 24.0 0.00 0.00 0.00 41 1007.9
20260906001503 93 165 8.0 16.0 0.00 0.00 0.00 36 1007.7
20260906001003 93 163 9.0 17.0 0.00 0.00 0.00 35 1007.7
20260906000717 93 161 10.0 18.0 0.00 0.00 0.00 35 1007.6
20260906000003 94 162 11.0 21.0 0.00 0.00 0.00 34 1007.6
20260905235717 94 162 12.0 21.0 0.00 0.00 0.00 34 1007.8
20260905235003 94 161 11.0 21.0 0.00 0.00 0.00 34 1007.8
20260905234503 94 159 11.0 19.0 0.00 0.00 0.00 34 1007.7
20260905234218 94 157 12.0 19.0 0.00 0.00 0.00 34 1007.6
20260905233717 94 157 12.0 19.0 0.00 0.00 0.00 34 1007.6
20260905233003 94 164 9.0 20.0 0.00 0.00 0.00 34 1007.6
20260905232503 94 167 11.0 20.0 0.00 0.00 0.00 35 1007.7
20260905232003 94 168 13.0 23.0 0.00 0.00 0.00 35 1007.6
20260905231503 94 163 12.0 23.0 0.00 0.00 0.00 35 1007.5
20260905231003 94 159 10.0 18.0 0.00 0.00 0.00 36 1007.3
20260905230503 94 153 10.0 18.0 0.00 0.00 0.00 36 1007.4
20260905230003 94 143 8.0 17.0 0.00 0.00 0.00 36 1007.4
20260905225716 94 141 9.0 17.0 0.00 0.00 0.00 36 1007.4
20260905225217 94 143 9.0 17.0 0.00 0.00 0.00 36 1007.3
20260905224503 95 147 7.0 16.0 0.00 0.00 0.00 35 1007.3
20260905224003 95 149 6.0 15.0 0.00 0.00 0.00 35 1007.3
20260905223716 95 146 6.0 14.0 0.00 0.00 0.00 36 1007.3
20260905223003 95 144 8.0 16.0 0.00 0.00 0.00 35 1007.4
20260905222716 95 141 8.0 16.0 0.00 0.00 0.00 35 1007.3
20260905222217 95 141 8.0 15.0 0.00 0.00 0.00 35 1007.3
20260905221503 96 146 8.0 17.0 0.00 0.00 0.00 35 1007.3
20260905221008 96 135 9.0 18.0 0.00 0.00 0.00 35 1007.4
20260905220503 95 133 9.0 20.0 0.00 0.00 0.00 35 1007.5
20260905220003 95 137 8.0 18.0 0.00 0.00 0.00 35 1007.5
20260905215503 95 143 8.0 18.0 0.00 0.00 0.00 34 1007.6
20260905215432 95 144 9.0 18.0 0.00 0.00 0.00 34 1007.6
20260905214718 96 149 9.0 17.0 0.00 0.00 0.00 34 1007.7
20260905214003 95 139 9.0 17.0 0.00 0.00 0.00 33 1007.7
20260905213718 95 142 9.0 21.0 0.00 0.00 0.00 34 1007.7
20260905213003 95 160 10.0 21.0 0.00 0.00 0.00 34 1007.9
20260905212503 96 159 9.0 17.0 0.00 0.00 0.00 34 1008.0
20260905212003 96 157 9.0 17.0 0.00 0.00 0.00 33 1007.9
20260905211718 95 155 10.0 19.0 0.00 0.00 0.00 33 1007.9
20260905211003 95 160 12.0 20.0 0.00 0.00 0.00 33 1008.2
20260905210503 96 163 12.0 26.0 0.00 0.00 0.00 34 1008.3
20260905210003 96 159 11.0 26.0 0.00 0.00 0.00 33 1008.2
20260905205503 96 153 10.0 18.0 0.00 0.00 0.00 32 1008.4
20260905205003 96 154 11.0 18.0 0.00 0.00 0.00 33 1008.4
20260905204503 96 155 11.0 23.0 0.00 0.00 0.00 33 1008.6
20260905204003 96 155 13.0 25.0 0.00 0.00 0.00 33 1008.6
20260905203503 96 151 11.0 25.0 0.00 0.00 0.00 32 1008.6
20260905203003 96 143 9.0 16.0 0.00 0.00 0.00 32 1008.7
20260905202718 96 143 10.0 16.0 0.00 0.00 0.00 32 1008.7
20260905202432 96 144 9.0 16.0 0.00 0.00 0.00 33 1008.8